STARLINK-34764, 65098

Orbit data source: Space-Track

STARLINK-34764, 65098 is a payload satellite owned by SpaceX/Seattle (US) in LEO that was launched on Mon, 04 Aug 2025 UTC via an FALCON 9 launch vehicle from the Air Force Eastern Test Range (AFETR). Payload-class satellites include a variety of spacecraft equipped with specific instruments for various scientific and technological missions. These include communications satellites like Starlink; space stations such as the ISS; scientific satellites like the Hubble; Earth observation satellites from companies like Planet Labs, Umbra, and HawkEye 360; GPS; miniature CubeSats for education and research; and military/defense satellites.

Loading next visibility...
Identifier
65098, 2025-167W
Orbit
LEO
Country
Flag of USUS
Related business
Manufacturer
SpaceX/Seattle
Mission
Operational spacecraft
Bus & Motor
STARLINK V2MO, Unknown motor
Mass
575 kg wet, ~530 kg dry
Launch date (UTC)
2025-08-04 (1 month ago)
Launch vehicle
FALCON 9
Launch site
Air Force Eastern Test Range (AFETR)
Object type
Payload
Rocket body
Debris
Shape & HBR
Unknown
Radar Cross Section
Large (>1 m²)

Expand to show TLE details & history
Last TLE update: 10 hours ago

TLE from 10 hours ago
0 STARLINK-34764
1 65098U 25167W   25243.17580770  .00114810  00000-0  77691-3 0  9998
2 65098  53.1579 194.9912 0002158  40.3475 319.7704 15.74207399  4264
Epoch: 2025-08-31T04:13Z
TLE epoch observation values (Epoch: 2025-08-31T04:13:09.785Z)
Latitude
-0.00006°
Longitude
152.10087°
Altitude
346.696 km
Speed
7.703 km/s
True Right ascension
12h 59m 57s
True Declination
0° 00' 00"
Sunlit
Object was in daylight at epoch
Visualization orbit readout
Latitude
Unknown
Longitude
Unknown
Altitude
Unknown
Speed
Unknown
Apparent Right ascension
Unknown
Apparent Declination
Unknown
Sunlit
N/A
Visualization observer readout
Local Sidereal Time
06:10:22
Azimuth
Unknown
Elevation
Unknown
Doppler factor
Unknown
Orbital elements
Apogee altitude
348.6 km
Perigee altitude
345.698 km
Semi-major axis
6,725.286 km
Eccentricity
0.00022
Inclination
53.1579°
RAAN
194.9912°
Arg. of periapsis
40.3475°
True anomaly
319.75443°
Mean anomaly
319.7704°
Eccentric anomaly
319.76241°
Mean motion
3.93529 °/min
Orbital period
91.48 mins
BSTAR
0.00077691
Loading maneuver chart data...
Computing Atmospheric mass density...
Loading historical data...
Loading historical data...
Loading historical data...
Loading historical data...
Loading historical data...
Loading historical data...
Loading historical data...

Documentation

Showing up to 5 results
|